STARLINK-5558, 55631

Orbit data source: Space-Track

STARLINK-5558, 55631 is a payload satellite owned by SpaceX/Seattle (US) in LEO that was launched on Fri, 17 Feb 2023 UTC via an FALCON 9 launch vehicle from the Air Force Western Test Range (AFWTR). Payload-class satellites include a variety of spacecraft equipped with specific instruments for various scientific and technological missions. These include communications satellites like Starlink; space stations such as the ISS; scientific satellites like the Hubble; Earth observation satellites from companies like Planet Labs, Umbra, and HawkEye 360; GPS; miniature CubeSats for education and research; and military/defense satellites.

Loading next visibility...
Identifier
55631, 2023-021D
Orbit
LEO
Country
Flag of USUS
Related business
Manufacturer
SpaceX/Seattle
Mission
Operational Commercial Communications
Bus & Motor
STARLINK, Unknown motor
Mass
305 kg wet, ~290 kg dry
Launch date (UTC)
2023-02-17 (3 years ago)
Launch vehicle
FALCON 9
Launch site
Air Force Western Test Range (AFWTR)
Object type
Payload
Rocket body
Debris
Shape & HBR
Box + 1 Pan, 10.1 m
Radar Cross Section
13.562 m², Large (>1 m²)

Expand to show TLE details & history
Last TLE update: 2 days ago

TLE from 2 days ago
0 STARLINK-5558
1 55631U 23021D   26171.45441897 -.00000100  00000-0 -55868-6 0  9998
2 55631  70.0001 305.2554 0003078 270.6655  89.4152 14.98333172183690
Epoch: 2026-06-20T10:54Z
TLE epoch observation values (Epoch: 2026-06-20T10:54:21.799Z)
Latitude
Longitude
-127.00423°
Altitude
574.449 km
Speed
7.574 km/s
True Right ascension
20h 21m 01s
True Declination
0° 00' 00"
Sunlit
Object was in full shadow at epoch
Visualization orbit readout
Latitude
Unknown
Longitude
Unknown
Altitude
Unknown
Speed
Unknown
Apparent Right ascension
Unknown
Apparent Declination
Unknown
Sunlit
N/A
Visualization observer readout
Local Sidereal Time
21:49:07
Azimuth
Unknown
Elevation
Unknown
Doppler factor
Unknown
Orbital elements
Apogee altitude
572.133 km
Perigee altitude
567.856 km
Semi-major axis
6,948.131 km
Eccentricity
0.00031
Inclination
70.0001°
RAAN
305.2554°
Arg. of periapsis
270.6655°
True anomaly
89.45047°
Mean anomaly
89.4152°
Eccentric anomaly
89.43283°
Mean motion
3.7475 °/min
Orbital period
96.06 mins
BSTAR
-5.5868e-7
Loading maneuver chart data...
Computing Atmospheric mass density...

Documentation

Showing up to 5 results
|